Previsão horária em Ali Bayramli

Hoje, 20 Janeiro, Quarta-feira

Tempo Temperatura Precipitação Vento Pressão Humidade
00:00 -1°C° 0.6 mm 5 m/s 762 mmHg 94%
01:00 -1°C° 0.4 mm 5 m/s 762 mmHg 95%
02:00 -1°C° 0.4 mm 5 m/s 762 mmHg 95%
03:00 -2°C° 0 mm 6 m/s 762 mmHg 95%
04:00 -1°C° 0.2 mm 5 m/s 762 mmHg 94%
05:00 -1°C° 0.2 mm 5 m/s 762 mmHg 94%
06:00 -1°C° 0.2 mm 5 m/s 762 mmHg 94%
07:00 -1°C° 0.4 mm 5 m/s 762 mmHg 95%
08:00 -1°C° 0.4 mm 5 m/s 762 mmHg 95%
09:00 -1°C° 0 mm 4 m/s 762 mmHg 96%
10:00 -1°C° 0.4 mm 4 m/s 762 mmHg 96%
11:00 -1°C° 0.4 mm 4 m/s 762 mmHg 95%
12:00 0°C° 0.4 mm 4 m/s 762 mmHg 94%
13:00 0°C° 0.7 mm 3 m/s 762 mmHg 95%
14:00 0°C° 0.7 mm 3 m/s 761 mmHg 96%
15:00 +1°C° 0 mm 2 m/s 761 mmHg 97%
16:00 +1°C° 0.7 mm 2 m/s 762 mmHg 97%
17:00 +1°C° 0.7 mm 2 m/s 762 mmHg 96%
18:00 +1°C° 0.7 mm 2 m/s 763 mmHg 95%
19:00 +1°C° 0 mm 2 m/s 763 mmHg 93%
20:00 +1°C° 0 mm 2 m/s 763 mmHg 91%
21:00 +1°C° 0 mm 2 m/s 763 mmHg 90%
22:00 0°C° 0 mm 3 m/s 764 mmHg 89%
23:00 0°C° 0 mm 3 m/s 764 mmHg 89%

Amanhã, 21 Janeiro, Quinta-feira

Tempo Temperatura Precipitação Vento Pressão Humidade
00:00 0°C° 0 mm 3 m/s 765 mmHg 89%
01:00 0°C° 0 mm 3 m/s 765 mmHg 88%
02:00 0°C° 0 mm 3 m/s 765 mmHg 88%
03:00 +1°C° 0 mm 2 m/s 765 mmHg 88%
04:00 +1°C° 0 mm 2 m/s 766 mmHg 88%
05:00 +1°C° 0 mm 2 m/s 766 mmHg 87%
06:00 +1°C° 0 mm 2 m/s 767 mmHg 87%
07:00 +1°C° 0 mm 2 m/s 768 mmHg 85%
08:00 +1°C° 0 mm 3 m/s 768 mmHg 83%
09:00 +1°C° 0 mm 3 m/s 769 mmHg 81%
10:00 +1°C° 0.1 mm 3 m/s 769 mmHg 77%
11:00 +2°C° 0.1 mm 3 m/s 770 mmHg 72%
12:00 +2°C° 0.1 mm 3 m/s 771 mmHg 67%
13:00 +2°C° 0.1 mm 3 m/s 771 mmHg 67%
14:00 +3°C° 0.1 mm 3 m/s 771 mmHg 66%
15:00 +3°C° 0.1 mm 3 m/s 771 mmHg 66%
16:00 +2°C° 0 mm 3 m/s 771 mmHg 69%
17:00 +1°C° 0 mm 3 m/s 772 mmHg 72%
18:00 +1°C° 0 mm 3 m/s 773 mmHg 74%
19:00 +1°C° 0 mm 3 m/s 773 mmHg 76%
20:00 +1°C° 0 mm 2 m/s 773 mmHg 77%
21:00 +1°C° 0 mm 2 m/s 773 mmHg 79%
22:00 +2°C° 0 mm 1 m/s 773 mmHg 80%
23:00 +1°C° 0 mm 1 m/s 774 mmHg 82%

Depois de amanhã, 22 Janeiro, Sexta-feira

Tempo Temperatura Precipitação Vento Pressão Humidade
00:00 +1°C° 0 mm 1 m/s 774 mmHg 84%
01:00 +1°C° 0 mm 1 m/s 774 mmHg 83%
02:00 +1°C° 0 mm 1 m/s 773 mmHg 81%
03:00 -1°C° 0 mm 2 m/s 773 mmHg 80%
04:00 -1°C° 0 mm 2 m/s 773 mmHg 80%
05:00 -1°C° 0 mm 3 m/s 773 mmHg 79%
06:00 -1°C° 0 mm 3 m/s 773 mmHg 79%
07:00 -1°C° 0 mm 3 m/s 773 mmHg 76%
08:00 -1°C° 0 mm 4 m/s 773 mmHg 74%
09:00 0°C° 0 mm 4 m/s 773 mmHg 72%
10:00 +1°C° 0 mm 4 m/s 773 mmHg 67%
11:00 +3°C° 0 mm 4 m/s 773 mmHg 63%
12:00 +4°C° 0 mm 4 m/s 773 mmHg 58%
13:00 +4°C° 0 mm 4 m/s 772 mmHg 56%
14:00 +4°C° 0 mm 4 m/s 772 mmHg 55%
15:00 +5°C° 0 mm 3 m/s 771 mmHg 53%
16:00 +4°C° 0 mm 3 m/s 771 mmHg 57%
17:00 +4°C° 0 mm 2 m/s 772 mmHg 62%
18:00 +3°C° 0 mm 2 m/s 772 mmHg 66%
19:00 +3°C° 0 mm 1 m/s 772 mmHg 66%
20:00 +3°C° 0 mm 1 m/s 772 mmHg 67%
21:00 +3°C° 0 mm 1 m/s 772 mmHg 67%
22:00 +2°C° 0 mm 1 m/s 771 mmHg 67%
23:00 +2°C° 0 mm 1 m/s 771 mmHg 67%

23 Janeiro, Sábado

Tempo Temperatura Precipitação Vento Pressão Humidade
00:00 +1°C° 0 mm 2 m/s 771 mmHg 67%
01:00 +1°C° 0 mm 2 m/s 771 mmHg 67%
02:00 +1°C° 0 mm 2 m/s 770 mmHg 67%
03:00 +1°C° 0 mm 2 m/s 770 mmHg 67%
04:00 +1°C° 0 mm 2 m/s 770 mmHg 66%
05:00 -1°C° 0 mm 2 m/s 770 mmHg 64%
06:00 -1°C° 0 mm 2 m/s 770 mmHg 63%
07:00 +1°C° 0 mm 2 m/s 770 mmHg 59%
08:00 +2°C° 0 mm 2 m/s 770 mmHg 54%
09:00 +2°C° 0 mm 2 m/s 770 mmHg 50%
10:00 +3°C° 0 mm 2 m/s 770 mmHg 48%
11:00 +4°C° 0 mm 2 m/s 769 mmHg 46%
12:00 +5°C° 0 mm 2 m/s 769 mmHg 44%
13:00 +5°C° 0 mm 2 m/s 769 mmHg 44%
14:00 +6°C° 0 mm 2 m/s 768 mmHg 44%
15:00 +7°C° 0 mm 1 m/s 768 mmHg 44%
16:00 +6°C° 0 mm 1 m/s 768 mmHg 50%
17:00 +4°C° 0 mm 1 m/s 768 mmHg 56%
18:00 +2°C° 0 mm 0 m/s 768 mmHg 61%
19:00 +3°C° 0 mm 1 m/s 768 mmHg 62%
20:00 +2°C° 0 mm 1 m/s 768 mmHg 62%
21:00 +2°C° 0 mm 1 m/s 769 mmHg 62%
22:00 +2°C° 0 mm 1 m/s 768 mmHg 62%
23:00 +2°C° 0 mm 1 m/s 768 mmHg 62%

24 Janeiro, Domingo

Tempo Temperatura Precipitação Vento Pressão Humidade
00:00 +2°C° 0 mm 1 m/s 768 mmHg 61%
01:00 +2°C° 0 mm 1 m/s 768 mmHg 61%
02:00 +2°C° 0 mm 1 m/s 768 mmHg 60%
03:00 +2°C° 0 mm 1 m/s 767 mmHg 60%
04:00 +2°C° 0 mm 1 m/s 767 mmHg 60%
05:00 +1°C° 0 mm 2 m/s 767 mmHg 61%
06:00 -1°C° 0 mm 2 m/s 767 mmHg 62%
07:00 +1°C° 0 mm 2 m/s 767 mmHg 57%
08:00 +2°C° 0 mm 2 m/s 767 mmHg 52%
09:00 +3°C° 0 mm 2 m/s 768 mmHg 47%
10:00 +4°C° 0 mm 2 m/s 767 mmHg 44%
11:00 +5°C° 0 mm 2 m/s 767 mmHg 40%
12:00 +5°C° 0 mm 3 m/s 766 mmHg 37%
13:00 +6°C° 0 mm 2 m/s 766 mmHg 37%
14:00 +7°C° 0 mm 2 m/s 766 mmHg 37%
15:00 +7°C° 0 mm 2 m/s 765 mmHg 37%
16:00 +7°C° 0 mm 1 m/s 765 mmHg 43%
17:00 +5°C° 0 mm 1 m/s 765 mmHg 50%
18:00 +3°C° 0 mm 0 m/s 765 mmHg 56%
19:00 +2°C° 0 mm 0 m/s 765 mmHg 57%
20:00 +2°C° 0 mm 0 m/s 765 mmHg 58%
21:00 +2°C° 0 mm 0 m/s 765 mmHg 58%
22:00 +3°C° 0 mm 1 m/s 765 mmHg 59%
23:00 +2°C° 0 mm 1 m/s 765 mmHg 60%

25 Janeiro, Segunda-feira

Tempo Temperatura Precipitação Vento Pressão Humidade
00:00 +2°C° 0 mm 1 m/s 764 mmHg 61%
01:00 +2°C° 0 mm 1 m/s 764 mmHg 61%
02:00 +2°C° 0 mm 1 m/s 764 mmHg 61%
03:00 +2°C° 0 mm 1 m/s 764 mmHg 60%
04:00 +2°C° 0 mm 1 m/s 764 mmHg 60%
05:00 +1°C° 0 mm 2 m/s 764 mmHg 60%
06:00 +1°C° 0 mm 2 m/s 764 mmHg 61%
07:00 +2°C° 0 mm 2 m/s 764 mmHg 57%
08:00 +4°C° 0 mm 1 m/s 764 mmHg 54%
09:00 +5°C° 0 mm 1 m/s 765 mmHg 50%
10:00 +5°C° 0 mm 2 m/s 764 mmHg 48%
11:00 +6°C° 0 mm 2 m/s 764 mmHg 45%
12:00 +7°C° 0 mm 2 m/s 764 mmHg 42%
13:00 +7°C° 0 mm 2 m/s 764 mmHg 42%
14:00 +7°C° 0 mm 2 m/s 763 mmHg 41%
15:00 +9°C° 0 mm 1 m/s 763 mmHg 41%
16:00 +8°C° 0 mm 1 m/s 763 mmHg 47%
17:00 +6°C° 0 mm 1 m/s 763 mmHg 53%
18:00 +5°C° 0 mm 1 m/s 764 mmHg 59%
19:00 +5°C° 0 mm 1 m/s 764 mmHg 63%
20:00 +5°C° 0 mm 1 m/s 764 mmHg 66%
21:00 +4°C° 0 mm 1 m/s 764 mmHg 69%
22:00 +4°C° 0 mm 1 m/s 764 mmHg 72%
23:00 +3°C° 0 mm 0 m/s 763 mmHg 75%
Mostrar mais

Necessitamos do seu Consentimento

A Meteoprog e os seus Fornecedores de Serviços podem armazenar e aceder a dados pessoais como cookies, identificadores do dispositivo ou outras tecnologias semelhantes existentes no seu dispositivo e processar estes dados para personalizar conteúdos e anúncios, assim como funcionalidades nas redes sociais e análise de tráfego.

  • Armazenar e/ou aceder a informações no seu dispositivo

    Os cookies, identificadores do dispositivo ou outras informações podem ser armazenados ou acedidos no seu dispositivo, para os fins acima indicados.

  • Anúncios e conteúdos personalizados, medição de anúncios e conteúdos, dados sobre o público-alvo e desenvolvimento de produtos

    Os anúncios e os conteúdos podem ser personalizados com base num perfil. Podem ser adicionados dados adicionais para uma maior personalização dos anúncios e dos conteúdos. A eficácia dos anúncios e dos conteúdos pode ser medida. Podem ser obtidas informações sobre o público que visualizou os anúncios e os conteúdos. Estes dados podem ser usados para desenvolver ou melhorar sistemas, softwares ou a experiência do utilizador.

Ao clicar em "Eu concordo”, permitirá o uso de cookies, identificadores do dispositivo e web beacons mencionados ou outras tecnologias semelhantes. As configurações do navegador do seu dispositivo podem ser alteradas.

Para certos fins, podem ser invocados interesses legítimos ao invés de consentimento. Pode ler mais informação sobre este assunto na nossa Política de Privacidade e Cookies.